Fort Lewis, WA
on Wednesday, November 7, 2012

Wednesday
Previous Day Next Day
Daily Summary
 ActualAverage (KOLM)Record (KOLM)
Temperature
Mean Temperature °F 45°F  
Max Temperature 52°F 53°F 73°F (2002)
Min Temperature 36°F 38°F 23°F (2003)
Degree Days
Heating Degree Days 20 20  
Month to date heating degree days 134  
Since 1 July heating degree days 928  
Cooling Degree Days 0 0  
Month to date cooling degree days 0  
Year to date cooling degree days 106  
Moisture
Dew Point 40°F   
Average Humidity 82    
Maximum Humidity 100    
Minimum Humidity 58    
Precipitation
Precipitation 0.02 in 0.27 in 1.17 in (1995)
Month to date precipitation 1.75  
Year to date precipitation 35.66  
Wind
Wind Speed 7 mph   
Max Wind Speed 10 mph   
Max Gust Speed mph   
Visibility 10 miles   
Events Rain   

Key: T is trace of precipitation, MM is missing value
Source: NWS Daily Summary
Time(PST)TemperatureDew PointHumidity Pressure Visibility Wind DirectionWind SpeedGust SpeedPrecipitationEvents Conditions
12:58 AM 44.8°F 44.2°F 98% 30.09 in 10.0 miles SSE 8.1 mph - N/A   Clear
1:11 AM 44.6°F 44.6°F 100% 30.07 in 10.0 miles South 6.9 mph - N/A Rain Light Rain
1:21 AM 46.4°F 44.6°F 93% 30.07 in 10.0 miles South 8.1 mph - N/A   Partly Cloudy
1:58 AM 46.0°F 44.2°F 93% 30.09 in 10.0 miles South 8.1 mph - 0.00 in   Clear
2:58 AM 43.9°F 42.4°F 95% 30.12 in 10.0 miles South 8.1 mph - N/A   Clear
3:58 AM 41.4°F 40.5°F 97% 30.12 in 10.0 miles SSE 8.1 mph - N/A   Scattered Clouds
4:58 AM 41.4°F 40.6°F 97% 30.13 in 10.0 miles SSE 9.2 mph - N/A   Clear
5:58 AM 40.3°F 39.7°F 98% 30.14 in 10.0 miles SE 9.2 mph - N/A   Clear
6:58 AM 39.2°F 38.7°F 98% 30.15 in 10.0 miles SE 9.2 mph - N/A   Clear
7:58 AM 43.2°F 42.4°F 97% 30.15 in 10.0 miles South 9.2 mph - N/A   Partly Cloudy
8:58 AM 46.4°F 42.1°F 85% 30.16 in 10.0 miles South 8.1 mph - N/A   Clear
9:58 AM 49.3°F 41.0°F 73% 30.15 in 10.0 miles South 9.2 mph - N/A   Clear
10:58 AM 51.6°F 40.3°F 65% 30.15 in 10.0 miles SSW 8.1 mph - N/A   Clear
11:58 AM 52.7°F 38.8°F 59% 30.14 in 10.0 miles SSW 9.2 mph - N/A   Clear
12:58 PM 52.5°F 38.3°F 58% 30.13 in 10.0 miles SSW 10.4 mph - N/A   Mostly Cloudy
1:34 PM 51.8°F 39.2°F 62% 30.10 in 10.0 miles WSW 8.1 mph - N/A Rain Light Rain Showers
1:38 PM 51.8°F 39.2°F 62% 30.11 in 6.0 miles WSW 4.6 mph - N/A   Light Drizzle
1:48 PM 50.0°F 41.0°F 71% 30.10 in 10.0 miles SW 3.5 mph - N/A   Scattered Clouds
1:58 PM 50.2°F 39.9°F 68% 30.12 in 10.0 miles SW 4.6 mph - 0.01 in   Scattered Clouds
2:58 PM 50.7°F 38.5°F 63% 30.10 in 10.0 miles Variable 5.8 mph - N/A   Partly Cloudy
3:55 PM 50.0°F 41.0°F 71% 30.07 in 10.0 miles Variable 4.6 mph - N/A   Light Drizzle
3:58 PM 49.6°F 40.3°F 70% 30.09 in 10.0 miles SE 4.6 mph - 0.00 in   Light Drizzle
4:04 PM 50.0°F 39.2°F 66% 30.07 in 10.0 miles SSE 4.6 mph - N/A   Overcast
4:07 PM 50.0°F 41.0°F 71% 30.07 in 9.0 miles South 5.8 mph - N/A   Light Drizzle
4:19 PM 50.0°F 41.0°F 71% 30.06 in 10.0 miles South 4.6 mph - N/A   Overcast
4:58 PM 48.7°F 39.6°F 71% 30.07 in 10.0 miles Calm Calm - 0.01 in   Scattered Clouds
5:58 PM 45.9°F 39.7°F 79% 30.07 in 10.0 miles SSE 1.2 mph - N/A   Clear
6:58 PM 41.9°F 40.3°F 94% 30.05 in 10.0 miles ENE 3.5 mph - N/A   Partly Cloudy
7:58 PM 39.9°F 39.2°F 97% 30.04 in 10.0 miles ENE 2.3 mph - N/A   Mostly Cloudy
8:58 PM 41.7°F 39.6°F 92% 30.02 in 10.0 miles Variable 2.3 mph - N/A   Overcast
9:58 PM 42.3°F 38.5°F 86% 30.01 in 10.0 miles SE 2.3 mph - N/A   Scattered Clouds
10:58 PM 39.0°F 38.1°F 97% 29.97 in 10.0 miles ENE 2.3 mph - N/A   Scattered Clouds
11:38 PM 37.4°F 35.6°F 93% 29.94 in 6.0 miles SE 2.3 mph - N/A   Clear
11:58 PM 36.3°F 35.8°F 98% 29.96 in 6.0 miles SE 3.5 mph - N/A   Clear
Moon Phase
Nov. 07 Nov. 13 Nov. 20 Nov. 28 Dec. 06
Sunrise:07:02 AM (PST) Moon Rise:No Moon Rise/
Sunset:04:44 PM (PST) Moon Set:01:20 PM (PST)11/7

Copyright © 2014 The Weather Underground, Inc.